Regional Weather Roundup
Issued by NWS

Home | Current Version | Previous Version | Text Only | Print | Product List | Glossary Off
Versions: 1 2 3 4 5 6 7 8 9 10 11 12 13 14 15 16 17 18 19 20 21 22 23 24 25 26 27 28 29 30 31 32 33 34 35 36 37 38 39 40 41 42 43 44 45 46 47 48 49 50

000
ASUS43 KOAX 051410
RWRNE

WEATHER ROUNDUP FOR NEBRASKA
NATIONAL WEATHER SERVICE OMAHA NE
800 AM CST FRI FEB 05 2016

NOTES: SATELLITE DATA IS BEING USED TO AUGMENT CLOUD COVER ABOVE
       12000 FEET.
       "FAIR" INDICATES FEW OR NO CLOUDS BELOW 12,000 FEET WITH NO
       SIGNIFICANT WEATHER AND/OR OBSTRUCTIONS TO VISIBILITY.

  * THESE STATIONS DO NOT REPORT WEATHER SUCH AS RAIN...SNOW OR FOG.

NEZ001>004-019>022-054>056-051500-
NEBRASKA PANHANDLE

CITY           SKY/WX    TMP DP  RH WIND       PRES   REMARKS
SCOTTSBLUFF    CLEAR     15   9  76 NW12      30.26R WCI   2
ALLIANCE       CLEAR     14  10  84 W12       30.20R WCI   0
CHADRON        PTCLDY    27  21  78 W9        30.22S WCI  18
KIMBALL        CLEAR     20  12  69 NW15G21   30.24S WCI   7
SIDNEY         CLEAR     18  12  77 W12       30.24R WCI   5
$$

NEZ057>060-069>072-079>082-051500-
SOUTHWEST NEBRASKA

CITY           SKY/WX    TMP DP  RH WIND       PRES   REMARKS
NORTH PLATTE   CLEAR     28  23  81 W10       30.20S WCI  19
IMPERIAL       CLOUDY    28  21  75 W13       30.24R WCI  17
LEXINGTON      LGT SNOW  32  30  92 SW6       30.23R WCI  26
MCCOOK         CLOUDY    32  28  85 SW14      30.25F WCI  22
OGALLALA       CLEAR     20  16  83 W5        30.22S WCI  13
$$

NEZ005>010-023>029-035>040-094-051500-
NORTH CENTRAL NEBRASKA

CITY           SKY/WX    TMP DP  RH WIND       PRES   REMARKS
VALENTINE      CLOUDY    28  22  78 W9        30.15S WCI  19
AINSWORTH      CLEAR     25  21  86 W6        30.15S WCI  18
BROKEN BOW     CLOUDY    31  28  89 W8        30.19R WCI  23
O`NEILL        CLOUDY    24  21  89 S6        30.17S WCI  17
ORD            CLOUDY    24  22  91 SE3       30.20S FOG
THEDFORD       CLEAR     26  21  83 W7        30.17R WCI  18
$$

NEZ041-046>049-061>064-073>077-083>087-051500-
SOUTH CENTRAL NEBRASKA

CITY           SKY/WX    TMP DP  RH WIND       PRES   REMARKS
GRAND ISLAND   LGT SNOW  25  22  88 S12       30.26S FOG     WCI  14
AURORA         LGT SNOW  24  23  96 S10       30.27S WCI  13
HASTINGS       LGT SNOW  24  21  88 S9        30.26S VSB 1   WCI  14
HEBRON         LGT SNOW  24  20  85 S8        30.35F WCI  15
HOLDREGE       LGT SNOW  27  25  93 SW10      30.25S WCI  17
KEARNEY *      CLOUDY    28 -18  12 SW12      30.24S WCI  18
YORK           LGT SNOW  23  23 100 S14       30.29S VSB 1   WCI  11
$$

NEZ011>018-030>034-042>045-051500-
NORTHEAST NEBRASKA

CITY           SKY/WX    TMP DP  RH WIND       PRES   REMARKS
NORFOLK        LGT SNOW  24  20  84 S18       30.23F FOG     WCI  10
ALBION         LGT SNOW  24  21  88 S6        30.24S WCI  17
BLAIR          CLOUDY    20  19  93 S9        30.33S WCI  10
COLUMBUS *     CLOUDY    23  14  68 S14G20    30.29S WCI  11
FREMONT        CLOUDY    23  18  81 S7        30.33S WCI  14
TEKAMAH        LGT SNOW  16  13  88 SE5       30.35S FOG     WCI   9
WAYNE          CLOUDY    24  19  83 S18       30.26S WCI   9
$$

NEZ050>053-065>068-078-088>093-051500-
SOUTHEAST NEBRASKA

CITY           SKY/WX    TMP DP  RH WIND       PRES   REMARKS
LINCOLN        CLOUDY    20  16  84 SE5       30.36S WCI  13
OMAHA EPPLEY   CLOUDY    21  19  92 S9        30.37R WCI  11
BEATRICE       CLOUDY    24  20  86 S6        30.37S WCI  16
FALLS CITY     CLOUDY    23  19  85 S6        30.40R WCI  16
NEBRASKA CITY  CLOUDY    21  19  91 S8        30.38R WCI  11
PLATTSMOUTH    CLOUDY    21  18  88 S8        30.37R FOG     WCI  12
$$

NEZ044-045-051>053-067-051500-
OMAHA AREA

CITY           SKY/WX    TMP DP  RH WIND       PRES   REMARKS
OMAHA EPPLEY   CLOUDY    21  19  92 S9        30.37R WCI  11
BLAIR          CLOUDY    20  19  93 S9        30.33S WCI  10
FREMONT        CLOUDY    23  18  81 S7        30.33S WCI  14
MILLARD        CLOUDY    21  18  88 SE3       30.37R
OFFUTT AFB     CLOUDY    20  19  97 CALM      30.37R
PLATTSMOUTH    CLOUDY    21  18  88 S8        30.37R FOG     WCI  12
WAHOO          CLOUDY    19  18  93 S7        30.34S WCI  10
$$



USA.gov is the U.S. government's official web portal to all federal, state and local government web resources and services.